Regional Weather Roundup
Issued by NWS

Home | Current Version | Previous Version | Text Only | Print | Product List | Glossary On
Versions: 1 2 3 4 5 6 7 8 9 10 11 12 13 14 15 16 17 18 19 20 21 22 23 24 25 26 27 28 29 30 31 32 33 34 35 36 37 38 39 40 41 42 43 44 45 46 47 48 49 50
000
ASUS44 KBMX 191610
RWRAL

ALABAMA REGIONAL WEATHER ROUNDUP
NATIONAL WEATHER SERVICE BIRMINGHAM AL
1000 AM CST FRI DEC 19 2014

NOTE: "FAIR" INDICATES FEW OR NO CLOUDS BELOW 12,000 FEET
WITH NO SIGNIFICANT WEATHER AND/OR OBSTRUCTIONS TO VISIBILITY.

THE REMARK "TC" DENOTES TEMPERATURE IN DEGREES CELSIUS.

ALZ001>011-014-016>018-020-191700-
NORTH ALABAMA

CITY           SKY/WX    TMP DP  RH WIND       PRES   REMARKS
MUSCLE SHOALS  CLOUDY    41  33  73 NE5       30.28R
HUNTSVILLE     CLOUDY    42  31  64 N6        30.25R
DECATUR        CLOUDY    40  32  73 N6        30.27R
HALEYVILLE     CLOUDY    39  32  76 CALM      30.27R
GADSDEN        CLOUDY    43  30  61 N3        30.25R
$$

ALZ012-013-022-023-030>036-040>044-191700-
WEST CENTRAL ALABAMA

CITY           SKY/WX    TMP DP  RH WIND       PRES   REMARKS
TUSCALOOSA     CLOUDY    45  36  70 NE5       30.25R
$$

ALZ015-024>027-033>036-040>044-191700-
CENTRAL ALABAMA

CITY           SKY/WX    TMP DP  RH WIND       PRES   REMARKS
BIRMINGHAM     CLOUDY    43  36  76 N5        30.25R
MONTGOMERY     CLOUDY    48  35  60 CALM      30.25R
SHELBY CO ARPT CLOUDY    44  36  73 CALM      30.24R
MAXWELL AFB    CLOUDY    47  37  68 NE1       30.24R
GREENVILLE     FAIR      50  33  52 CALM      30.22R
$$

ALZ019-021-028-029-037-038-045>048-191700-
EAST CENTRAL ALABAMA

CITY           SKY/WX    TMP DP  RH WIND       PRES   REMARKS
ANNISTON       CLOUDY    41  35  79 CALM      30.22S
ALEXANDER CITY CLOUDY    49  35  58 N6        30.20R
AUBURN         PTSUNNY   48  34  57 NE10      30.21F
$$

ALZ051>064-191700-
SOUTHWEST ALABAMA

CITY           SKY/WX    TMP DP  RH WIND       PRES   REMARKS
MOBILE         LGT RAIN  46  43  89 E10       30.20F FOG
BROOKLEY FIELD LGT RAIN  48  44  86 NE13      30.22F
EVERGREEN      CLOUDY    53  36  52 N5        30.23R
$$

ALZ049-050-065>069-191700-
SOUTHEAST ALABAMA

CITY           SKY/WX    TMP DP  RH WIND       PRES   REMARKS
DOTHAN         PTSUNNY   50  37  61 N3        30.22S
OZARK          CLOUDY    51  35  53 NE8       30.18F
TROY           PTSUNNY   51  35  54 NE5       30.21F
EUFAULA        FAIR      55  38  52 NE5       30.19R
$$



USA.gov is the U.S. government's official web portal to all federal, state and local government web resources and services.